FW4586 Weather Reports


Display with metric or nautical units.
time (UTC)temp
F
wind
direction
speed
MPH
gust
MPH
rain 1hr
in
rain 24hr
in
rain mn
in
humidity
%
barometer
mb
20260504081517 37 257 5.0 9.0 0.02 0.45 0.09 96 977.2
20260504050123 40 4 1.0 4.0 0.00 0.36 0.00 88 975.5
20260504044551 40 278 0.0 6.0 0.00 0.36 0.00 87 975.8
20260504043052 41 212 0.0 6.0 0.00 0.36 0.00 87 976.1
20260504041546 41 27 4.0 9.0 0.00 0.36 0.00 85 976.7
20260504040042 42 190 2.0 12.0 0.00 0.36 0.00 84 977.2
20260504034548 42 98 5.0 24.0 0.00 0.36 0.00 85 977.3
20260504033043 42 55 2.0 13.0 0.00 0.36 0.00 86 977.5
20260504031549 42 195 8.0 22.0 0.00 0.36 0.00 87 978.0
20260504030040 42 291 6.0 16.0 0.00 0.36 0.00 86 977.7
20260504024533 42 81 8.0 21.0 0.00 0.36 0.36 86 977.3
20260504023029 42 98 4.0 27.0 0.00 0.36 0.36 85 978.7
20260504021528 42 287 5.0 31.0 0.00 0.36 0.36 84 979.2
20260504020030 42 96 19.0 43.0 0.00 0.36 0.36 83 979.6
20260504014526 41 90 33.0 66.0 0.01 0.36 0.36 84 979.3
20260504013027 42 89 40.0 73.0 0.02 0.36 0.36 84 980.3
20260504011524 42 92 39.0 67.0 0.02 0.36 0.36 85 980.4
20260504010022 42 94 40.0 67.0 0.03 0.36 0.36 86 981.6
20260504004523 42 110 44.0 69.0 0.04 0.35 0.35 86 981.1
20260504003019 41 102 41.0 67.0 0.04 0.34 0.34 89 981.8
20260504001517 41 130 32.0 56.0 0.04 0.34 0.34 93 983.5
20260504000015 40 103 35.0 64.0 0.03 0.33 0.33 93 984.5
20260503234511 41 18 27.0 48.0 0.01 0.31 0.31 93 985.8
20260503233007 41 73 10.0 23.0 0.04 0.30 0.30 95 987.9
20260503231505 40 55 10.0 23.0 0.08 0.30 0.30 95 989.4
20260503230001 40 39 12.0 23.0 0.10 0.30 0.30 97 991.3
20260503224559 38 15 4.0 11.0 0.11 0.30 0.30 96 992.1
20260503223056 38 43 6.0 10.0 0.11 0.27 0.27 95 993.0
20260503221552 38 45 4.0 8.0 0.10 0.22 0.22 95 994.1
20260503220051 38 14 4.0 9.0 0.09 0.20 0.20 95 994.6
20260503214556 38 323 3.0 18.0 0.08 0.19 0.19 94 994.8
20260503213117 38 49 10.0 27.0 0.06 0.16 0.16 93 994.5
20260503211613 40 28 12.0 27.0 0.03 0.12 0.12 89 995.4
20260503210043 41 21 10.0 16.0 0.05 0.11 0.11 92 996.0
20260503204557 41 46 10.0 16.0 0.07 0.11 0.11 91 996.5
20260503203039 41 18 10.0 21.0 0.08 0.10 0.10 89 997.6
20260503201533 41 29 9.0 15.0 0.09 0.09 0.09 89 998.5
20260503200031 41 6 8.0 18.0 0.06 0.06 0.06 87 999.2
20260503194528 42 16 10.0 22.0 0.04 0.04 0.04 84 1000.1
20260503193024 43 51 8.0 24.0 0.02 0.02 0.02 80 1001.2
20260503191519 44 44 15.0 28.0 0.00 0.00 0.00 71 1002.4
20260503190016 47 31 6.0 27.0 0.00 0.00 0.00 63 1002.9
20260503184516 48 97 8.0 25.0 0.00 0.00 0.00 55 1003.2
20260503183013 49 72 17.0 29.0 0.00 0.00 0.00 50 1004.2
20260503181513 50 107 17.0 28.0 0.00 0.00 0.00 42 1004.4
20260503180024 51 79 15.0 28.0 0.00 0.00 0.00 36 1004.6
20260503174519 52 113 16.0 29.0 0.00 0.00 0.00 35 1004.7
20260503173012 51 88 18.0 28.0 0.00 0.00 0.00 36 1005.8
20260503171515 51 112 24.0 36.0 0.00 0.00 0.00 34 1006.1